Regional Weather Roundup
Issued by NWS Jackson, KY

Home | Current Version | Previous Version | Text Only | Print | Product List | Glossary On
Versions: 1 2 3 4 5 6 7 8 9 10 11 12 13 14 15 16 17 18 19 20 21 22 23 24 25 26 27
000
ASUS43 KJKL 210810
RWRJKL

EAST KENTUCKY HOURLY WEATHER ROUNDUP
NATIONAL WEATHER SERVICE JACKSON KY
300 AM EST SAT JAN 21 2017

NOTE: "FAIR" INDICATES FEW OR NO CLOUDS BELOW 12,000 FEET WITH
NO SIGNIFICANT WEATHER AND/OR OBSTRUCTIONS TO VISIBILITY.

* THESE REPORTS ARE NOT UNDER NWS QUALITY CONTROL AND MAY NOT
  REPORT WEATHER SUCH AS PRECIPITATION AND FOG.

KYZ079-080-083-085-087-088-110-112-115-119-120-210900
...EASTERN KENTUCKY...

CITY           SKY/WX    TMP DP  RH WIND       PRES   REMARKS
JACKSON        MOCLDY    56  48  74 S3        29.82S
LONDON         CLOUDY    48  44  86 CALM      29.82R
SOMERSET*      CLOUDY    54  46  76 S3        29.82R
MONTICELLO*    CLOUDY    56  50  80 NE6       29.82R
WILLIAMSBURG*  CLOUDY    55  50  82 SE8       29.82S
MIDDLESBORO*   MOCLDY    44  44 100 CALM      29.85S
HARLAN APT*    MOSUNNY   46  46 100 CALM      29.85S
PIKE CO APT*     N/A     55  48  79 S6        29.84S
MOREHEAD APT*  CLOUDY    50  46  87 S7        29.82R
ASHLAND*       CLOUDY    45  43  93 SE3       29.80R
$$

KYZ035-036-041-042-044-050-067-078-099-210900
...CENTRAL KENTUCKY...

CITY           SKY/WX    TMP DP  RH WIND       PRES   REMARKS
MT STERLING*   MOCLDY    54  48  82 S7        29.80F
FLEMING/MASON* CLOUDY    52  47  83 S7        29.80S
DANVILLE*      CLOUDY    52  46  82 S3        29.80R
LEXINGTON      CLOUDY    55  48  77 S9        29.77S
FRANKFORT      MOCLDY    51  45  79 SE3       29.75R
LOUISVILLE     CLOUDY    53  48  83 S7        29.74R
LEBANON*         N/A     57  50  77 S10       29.78R
GLASGOW*       PTCLDY    57  50  79 S5        29.77R
BOWLING GREEN  CLOUDY    58  52  80 S7        29.75R
$$

KYZ091>093-OHZ055-061-077-WVZ005-015-034-035-042-210900
...SOUTHERN OHIO/WEST VIRGINIA...

CITY           SKY/WX    TMP DP  RH WIND       PRES   REMARKS
COVINGTON      CLOUDY    49  46  90 S8        29.74S
COLUMBUS       PTCLDY    50  46  86 SE7       29.77S
DAYTON         MOCLDY    50  47  89 S8        29.75R
WILMINGTON     MOCLDY    49  46  90 S7        29.76R
HUNTINGTON     CLOUDY    47  45  93 CALM      29.81R
CHARLESTON     PTCLDY    47  46  97 CALM      29.83S
PINEVILLE*     CLEAR     41  39  93 MISG      29.92S
BECKLEY        CLEAR     49  44  83 CALM      29.88S
BLUEFIELD      CLEAR     51  44  77 SW5       29.90R
LOGAN CO APT*    N/A     55  48  76 CALM      29.84S
$$

VAZ002-007-008-TNZ017-027-036-066-071-210900
...SOUTHWEST VIRGINIA/EAST TENNESSEE...

CITY           SKY/WX    TMP DP  RH WIND       PRES   REMARKS
WISE*          PTCLDY    54  46  76 S7        29.89S
JONESVILLE*    CLOUDY    46  46 100 CALM      29.89S
ABINGDON*      PTCLDY    50  50  99 CALM      29.89S
BRISTOL        PTCLDY    45  45 100 CALM      29.87F
MORRISTOWN*    PTSUNNY   52  50  93 CALM      29.86R
SEVIERVILLE*   SUNNY     46  45  93 CALM      29.85R
KNOXVILLE      MOCLDY    53  49  86 NE3       29.83S
LAFOLLETTE*    MOSUNNY   46  46 100 CALM      29.87S
OAK RIDGE      CLOUDY    50  47  89 CALM      29.85S
CROSSVILLE     PTCLDY    54  50  86 S3        29.83F
NASHVILLE      CLOUDY    59  52  77 S5        29.77R
$$

...KEY TO REMARKS...
VSB - VISIBILITY IN MILES
WCI - WIND CHILL INDEX
HX  - HEAT INDEX

$$




USA.gov is the U.S. government's official web portal to all federal, state and local government web resources and services.